CAPE
0 0 0 0 0 0 0 25 0 0 0 0 0 0 0 0 0 0 0 0 0 0 0 49 76 116 176 151 164 213 302 386 213 10 0 0 0 0 0 0 0 0 1 9 11 72 14 2 55
0 0 0 9 0 12 1 0 0 0 0 0 0 0 0 0 0 0 0 0 0 0 0 0 71 0 145 328 600 535 719 611 344 154 19 34 23 1 0 0 0 0 1 9 14 62 68 27 121
0 0 0 14 21 29 2 0 0 0 0 0 0 0 0 0 0 0 0 0 0 0 0 0 0 102 395 732 786 508 354 382 100 0 11 52 65 54 29 5 0 3 2 15 34 91 139 62 80
0 0 0 0 6 1 0 0 0 0 0 0 0 0 0 0 0 0 0 0 0 0 0 0 0 1 194 1240 1300 959 627 174 50 0 0 27 9 59 78 74 54 25 7 14 82 186 159 146 92
0 0 0 35 37 24 0 0 0 0 0 0 0 0 0 0 0 0 0 0 0 0 0 0 0 0 0 355 758 491 461 180 122 95 91 142 58 83 71 79 85 49 29 6 4 74 203 152 139
0 0 0 25 24 5 1 0 0 0 0 0 0 0 0 0 0 0 0 0 0 0 0 0 0 0 4 266 266 124 5 2 0 0 57 52 33 7 0 12 127 125 58 10 9 0 37 215 51
0 0 2 4 24 16 4 0 0 0 0 0 0 0 0 0 0 0 0 0 0 0 0 0 0 0 0 0 0 0 0 0 0 0 0 0 0 46 38 20 134 122 123 50 2 0 0 156 75
0 0 0 0 18 27 3 0 0 0 0 0 0 0 0 0 0 0 0 0 0 0 0 0 0 0 0 0 0 0 0 0 0 0 0 7 15 54 77 67 125 135 146 50 83 6 0 46 104
0 0 0 0 8 15 1 1 0 0 0 0 0 0 0 0 0 0 0 0 0 0 0 0 0 0 0 0 0 0 6 2 0 0 2 9 11 22 57 179 124 131 114 97 69 5 0 87 236
0 0 0 0 0 0 0 5 10 8 0 0 0 0 0 0 0 0 0 0 0 0 0 0 0 0 0 0 0 5 15 5 6 5 3 8 7 12 80 92 160 103 110 59 32 37 0 86 78
0 0 0 0 0 0 0 0 2 0 0 0 0 0 0 0 0 0 0 0 0 0 0 0 0 0 0 0 0 2 19 9 5 3 2 7 7 19 158 127 105 146 117 109 18 48 0 0 36
0 0 0 0 0 0 0 0 0 0 0 0 0 0 0 0 0 0 0 0 0 0 0 0 0 0 0 0 0 16 26 21 18 8 9 12 19 74 172 135 145 70 201 164 142 50 0 1 192
0 0 0 0 0 0 0 0 0 0 0 0 0 0 0 0 0 0 0 0 0 0 0 0 0 1 4 3 8 22 17 13 21 15 18 9 48 160 41 45 74 58 82 184 100 158 35 60 291
0 0 0 0 0 0 0 0 0 0 0 0 0 0 0 0 0 0 0 0 0 0 0 0 0 2 2 2 24 12 24 50 36 33 5 21 88 124 133 79 30 64 18 64 200 192 102 134 268
0 0 0 0 0 0 0 0 0 0 0 0 0 0 0 0 0 0 0 0 0 0 0 0 0 0 0 11 53 33 27 44 42 74 70 115 98 196 207 84 44 181 199 187 308 239 305 319 390
0 0 0 0 0 0 0 0 0 0 0 0 0 0 0 0 0 0 0 0 0 0 0 0 0 0 1 14 19 34 36 112 102 93 6 66 135 184 322 185 106 60 256 294 334 175 218 343 352
0 0 0 1 4 0 0 0 0 1 0 0 0 0 0 0 0 0 0 0 0 0 0 0 0 0 0 18 65 77 149 246 206 7 3 1 157 153 300 462 375 336 369 403 333 275 226 336 276
0 2 6 1 39 13 2 0 1 0 0 0 0 0 0 0 0 0 0 0 0 0 0 0 0 2 5 18 38 249 287 285 146 16 0 0 44 145 268 482 536 435 490 523 594 254 239 377 219
0 1 12 20 36 26 19 0 0 11 0 0 0 0 0 0 0 0 0 0 0 0 0 0 0 2 0 10 35 64 267 35 47 54 11 30 0 50 192 496 460 525 429 491 628 404 263 277 344
0 0 0 0 12 30 10 0 0 0 0 0 0 0 0 0 0 0 0 0 0 0 0 0 0 0 0 5 111 230 231 131 22 121 103 42 56 94 189 360 257 267 446 476 611 585 348 580 473
0 0 0 0 19 21 2 0 0 0 0 0 0 0 0 0 0 0 0 0 0 0 0 0 0 0 0 182 89 206 414 381 393 265 117 111 43 80 182 237 169 196 221 381 545 697 565 604 741
0 0 0 0 2 1 2 0 0 0 0 0 0 0 0 17 1 0 0 0 0 0 0 0 0 0 34 17 3 87 351 361 336 357 273 180 104 109 103 162 193 184 128 265 422 622 641 609 585
0 0 0 0 0 0 0 0 0 0 1 0 0 0 2 33 1 0 0 0 0 0 0 0 0 0 100 8 6 58 101 185 453 428 271 223 192 97 101 116 162 161 278 519 728 810 817 487 471
0 0 0 0 0 0 0 0 0 0 0 0 0 1 63 45 0 0 0 0 0 0 0 0 0 0 8 11 2 56 88 212 285 45 16 111 197 115 155 145 234 378 557 520 608 816 699 586 618
0 0 0 0 0 0 1 0 0 0 0 0 0 40 110 43 0 0 0 0 0 0 0 0 0 0 0 0 0 2 29 45 252 190 60 77 113 34 160 200 269 385 540 593 681 678 635 674 309
0 0 0 0 1 13 5 0 0 0 0 0 0 62 194 43 0 0 0 0 0 0 0 0 0 0 0 0 0 0 1 123 213 2 0 4 30 87 180 179 258 372 428 469 611 633 505 501 162
0 0 0 0 0 0 15 2 0 0 0 1 10 231 258 40 0 0 0 0 0 0 0 0 0 0 0 0 0 0 3 205 101 95 20 43 128 110 167 164 286 290 327 396 532 450 383 400 317
0 0 0 0 0 0 6 6 14 0 27 226 251 285 196 3 0 0 0 0 0 0 0 0 0 0 0 0 0 0 1 116 165 54 97 188 38 140 130 237 233 286 316 399 568 547 341 119 83
0 0 0 0 0 0 11 8 3 0 53 312 293 274 58 0 0 0 0 0 0 0 0 0 0 0 0 0 0 0 1 1 3 75 169 37 89 36 264 231 234 206 353 481 531 525 347 128 4
0 0 0 0 0 0 7 68 0 0 48 182 257 187 1 0 0 0 0 0 0 0 0 0 0 0 0 0 0 0 0 0 0 87 330 218 131 6 12 84 196 187 281 364 409 344 245 86 13
CIN
0 0 0 0 0 0 0 -11 0 0 -0 0 0 0 0 0 0 0 0 0 0 0 0 -166 -218 -157 -120 -106 -92 -78 -47 -12 -51 -0 0 -0 0 0 0 0 0 0 -0 -0 -0 -45 -0 0 -2
0 0 0 -48 0 -7 -19 0 0 0 0 0 0 0 0 0 0 0 0 0 0 0 0 0 -108 0 -123 -59 -25 -18 -1 0 -5 -9 -0 -0 -0 -0 0 0 0 0 -0 -0 -0 -95 -46 -18 -1
0 0 0 -5 -4 -9 -7 -8 0 0 0 0 0 0 0 0 0 0 0 0 0 0 0 0 0 -111 -42 -20 -13 -12 -12 -4 -10 0 -0 -0 -0 -0 -0 -5 0 -0 -0 -0 -43 -75 -27 -59 -15
0 0 0 0 -4 -5 0 0 0 0 0 0 0 0 0 0 0 0 0 0 0 0 0 0 0 -3 -61 -8 -0 -1 -1 -7 -0 0 0 -0 -0 -1 -1 -1 -0 -0 -1 -0 -66 -27 -22 -5 -18
0 0 0 -5 -5 -5 0 -1 0 0 0 0 0 0 0 0 0 0 0 0 0 0 0 0 0 0 0 -27 -0 -0 -0 -0 -0 -0 -1 -1 -2 -0 -0 -0 -2 -0 -0 -0 -0 -119 -9 -5 -5
0 0 0 -6 -13 -25 -3 0 0 0 0 0 0 0 0 0 0 0 0 0 0 0 0 0 0 0 -52 -8 -2 -5 -2 -1 0 0 -50 -36 -16 -4 0 -2 -0 -0 -0 -0 -0 0 -73 -0 -79
0 0 -7 -11 -4 -5 -11 0 0 0 0 0 0 0 0 0 0 0 0 0 0 0 0 0 0 0 0 0 0 0 0 0 0 0 0 0 -0 -79 -7 -0 -0 -1 -0 -0 -0 0 0 -32 -79
0 0 0 0 -5 -8 -6 0 0 0 0 0 0 0 0 0 0 0 0 0 0 0 0 0 0 0 0 0 0 0 0 0 0 0 -0 -0 -0 -59 -43 -16 -0 -0 -0 -2 -0 -1 0 -22 -54
0 0 0 0 -6 -8 -6 -4 -2 0 0 0 0 0 0 0 0 0 0 0 0 0 0 0 0 0 0 0 0 0 -6 -1 -0 0 -0 -1 -0 -25 -81 -2 -3 -2 -1 -0 -2 -0 0 -14 -0
0 0 0 0 0 0 0 -4 -5 -7 0 0 0 0 0 0 0 0 0 0 0 0 0 0 0 0 0 0 0 -1 -1 -1 -1 -0 -0 -0 -1 -1 -52 -23 -1 -1 -1 -0 -1 -0 0 -22 -65
0 0 0 0 0 0 -0 0 -6 0 0 0 0 0 0 0 0 0 0 0 0 0 0 0 0 0 0 0 0 -0 -0 -5 -1 -3 -9 -1 -0 -102 -16 -12 -4 -0 -2 -0 -2 -3 0 -0 -90
0 0 0 0 0 0 0 0 0 0 0 0 0 0 0 0 0 0 0 0 0 0 0 0 0 0 -0 0 0 -1 -2 -1 -1 -7 -2 -0 -16 -23 -0 -2 -8 -13 -1 -1 -4 -7 0 -1 -22
0 0 0 0 0 0 0 0 0 0 0 0 0 0 0 0 0 0 0 0 0 0 0 0 0 -1 -1 -0 -1 -1 -1 -4 -1 -1 -0 -1 -1 -0 -6 -20 -41 -41 -12 -3 -9 -3 -2 -1 -1
0 0 0 0 0 0 0 0 0 0 0 0 0 0 0 0 0 0 0 0 0 0 0 0 0 -1 -0 -4 -3 -5 -2 -3 -1 -1 -1 -2 -1 -1 -0 -0 -50 -43 -9 -2 -5 -3 -1 -3 -1
0 0 0 0 0 0 0 0 0 0 0 0 0 0 0 0 0 0 0 0 0 0 0 0 0 0 -0 -2 -105 -1 -3 -1 -2 -4 -2 -0 -3 -1 -0 -1 -30 -2 -7 -0 -2 -8 -1 -4 -5
0 0 0 0 0 0 0 0 0 0 0 0 0 0 0 0 0 0 0 0 0 0 0 0 0 0 -0 -3 -0 -9 -1 -0 -0 -1 -37 -22 -0 -3 -0 -0 -5 -27 -5 -5 -2 -1 -1 -2 -4
0 0 0 -1 -5 0 0 0 0 -4 0 0 0 0 0 0 0 0 0 0 0 0 0 0 0 0 0 -162 -87 -45 -3 -0 -1 -18 -40 -12 -0 -1 -1 -0 -0 -0 -2 -2 -3 -4 -3 -3 -4
0 -5 -7 -3 -9 -20 -6 0 -5 0 0 0 0 0 0 0 0 0 0 0 0 0 0 0 0 -52 -61 -39 -58 -5 -1 -0 -1 -9 0 0 -0 -6 -2 -0 -0 -0 -1 -0 -1 -10 -7 -2 -3
0 -4 -5 -6 -4 -8 -4 -0 0 -10 -0 0 0 0 0 0 0 0 0 0 0 0 0 0 0 -92 0 -2 -4 -32 -1 -2 -3 -4 -1 -0 -0 -1 -0 -0 -0 -0 -2 -2 -0 -8 -4 -5 -5
0 0 0 0 -6 -4 -4 0 0 0 0 0 0 0 0 0 0 0 0 0 0 0 0 0 0 0 0 -3 -13 -2 -5 -2 -7 -0 -0 -2 -0 -3 -0 -0 -1 -1 -2 -0 -1 -3 -6 -2 -3
0 0 0 0 -3 -6 -1 0 0 0 0 0 0 0 0 0 0 0 0 0 0 0 0 0 0 0 0 -13 -21 -12 -1 -0 -0 -1 -1 -0 -0 -0 -0 -0 -1 -2 -1 -4 -4 -1 -1 -1 -5
0 0 0 0 -4 -4 -3 0 0 0 0 0 0 0 0 -140 -179 0 0 0 0 0 0 0 0 0 -65 -25 -2 -37 -0 -0 -1 -0 -0 -1 -0 -0 -1 -1 -0 -1 -5 -1 -2 -6 -1 -6 -0
0 0 0 -0 0 0 0 0 0 -0 -3 0 0 0 -84 -117 -212 0 0 0 0 0 0 0 0 0 -39 -33 -33 -29 -5 -1 -2 -0 -5 -0 -0 -1 -0 -1 -1 -1 -4 -1 -1 -0 -2 -7 -2
0 0 0 0 0 0 0 0 0 -1 0 0 0 -5 -52 -109 0 0 0 0 0 0 0 0 0 0 -26 -16 -26 -26 -9 -1 -1 -9 -13 -3 -0 -4 -0 -0 -0 -0 -0 -2 -2 -0 -5 -5 -4
0 0 0 0 0 0 -2 0 0 0 0 0 0 -8 -41 -133 0 0 0 0 0 0 0 0 0 0 0 -1 0 -3 -3 -9 -0 -0 -4 -2 -2 -7 -0 -0 -0 -0 -0 -0 -1 -5 -6 -6 -41
0 0 0 0 -5 -5 -9 0 0 0 0 0 0 -23 -47 -145 0 0 0 0 0 0 0 0 0 0 0 0 0 0 -1 -2 -7 -23 -4 -32 -15 -5 -0 -1 -0 -0 -1 -1 -1 -2 -8 -4 -28
0 0 0 0 0 0 -5 -3 -1 0 0 -1 -18 -23 -72 -169 0 0 0 0 0 0 0 0 0 0 0 0 0 0 -6 -1 -19 -14 -17 -9 -2 -1 -0 -0 -0 -0 -0 -2 -1 -8 -3 -1 -1
0 0 0 0 0 -3 -5 -4 -4 0 -3 -5 -12 -33 -105 -23 0 0 0 0 0 0 0 0 0 0 0 0 0 0 -1 -1 -2 -5 -1 -2 -34 -9 -9 -0 -1 -1 -0 -1 -0 -1 -12 -47 -38
0 0 0 0 0 -2 -4 -6 -21 0 -11 -4 -5 -31 -115 0 0 0 0 0 0 0 0 0 0 0 0 0 0 0 -2 -2 -7 -4 -6 -51 -12 -48 -1 -4 -0 -4 -0 -0 -2 -2 -11 -42 -57
0 0 0 0 0 0 -4 -5 0 0 -7 -2 -4 -21 -39 0 0 0 0 0 0 0 0 0 0 0 0 0 0 0 -1 0 0 -3 -7 -19 -8 -48 -46 -13 -8 -1 -0 -3 -2 -2 -1 -38 -90
Wind_Speed
15 15 12 11 12 10 14 14 15 19 18 15 19 22 27 27 25 23 15 16 17 16 13 11 8 8 9 10 10 12 13 14 17 18 17 19 21 26 29 30 30 29 27 26 27 28 26 25 26
14 12 12 13 15 14 17 17 20 22 23 19 18 20 21 22 22 19 15 14 14 15 15 14 8 8 9 10 12 14 15 16 19 19 19 21 24 27 28 30 30 30 28 27 27 26 27 25 25
11 11 16 12 11 17 22 21 24 23 20 18 18 18 22 22 19 20 18 14 14 15 14 14 12 11 11 12 13 14 16 19 21 23 24 25 27 29 31 30 31 30 29 28 27 27 27 26 25
11 12 12 16 20 19 19 25 26 26 18 19 21 23 17 17 17 17 16 15 15 16 17 16 14 15 13 12 12 15 18 21 23 25 26 27 29 31 33 33 30 29 29 28 27 28 28 28 26
8 12 18 17 17 20 19 24 25 23 22 18 18 23 22 14 16 16 16 16 16 19 21 21 19 19 16 15 16 18 21 23 23 24 25 27 28 29 30 31 32 29 28 28 28 29 29 29 29
12 9 22 22 22 15 19 21 22 23 22 19 21 24 22 13 14 14 15 16 19 21 20 20 19 18 19 19 20 21 23 23 23 24 25 27 29 31 30 29 29 28 27 25 28 31 30 29 28
13 19 24 27 26 25 20 19 24 25 25 22 20 25 20 14 13 14 15 16 17 18 18 18 19 19 18 18 19 22 23 23 23 24 26 27 29 29 29 29 25 24 25 27 28 32 31 29 27
9 21 27 24 24 22 23 20 21 21 23 21 21 21 26 15 12 13 14 14 17 16 18 20 18 20 22 20 19 22 24 23 24 24 23 26 26 26 26 27 27 23 22 26 26 28 30 29 28
8 26 26 24 25 25 26 24 20 16 22 15 19 20 20 14 12 12 13 14 16 19 18 17 20 23 22 20 20 22 20 20 22 18 16 18 18 20 20 20 21 22 20 22 25 27 28 28 27
11 21 20 26 28 26 27 29 28 18 16 13 15 15 17 12 12 12 12 15 17 20 20 20 20 22 21 20 19 20 20 21 21 20 15 15 19 20 20 20 17 20 19 22 23 28 29 30 29
13 15 18 24 21 19 25 25 20 17 15 19 18 16 9 10 10 10 12 15 20 20 20 22 21 20 21 20 21 19 19 20 17 17 12 11 17 17 15 17 12 15 20 22 23 26 29 30 29
16 10 14 7 7 13 19 21 17 12 15 20 20 17 11 8 8 7 10 13 14 20 21 21 20 21 20 20 21 17 19 16 12 12 11 11 13 15 16 15 11 13 20 21 24 29 25 30 27
11 10 11 10 11 13 16 14 13 13 16 18 16 15 11 8 7 6 7 10 14 18 21 21 21 21 20 20 19 19 14 10 12 11 11 9 14 14 16 16 20 14 13 22 24 26 27 26 25
11 16 11 16 14 15 13 13 10 12 13 15 14 11 12 6 3 5 7 9 13 17 20 21 21 21 20 21 17 15 11 9 9 12 12 9 7 9 12 12 14 22 17 24 25 27 24 24 27
12 17 16 19 16 15 12 13 15 9 11 14 14 8 5 3 2 2 5 9 13 16 19 20 19 19 19 18 16 15 11 10 10 12 14 7 5 7 9 12 11 16 11 24 26 28 21 25 27
12 14 19 15 12 10 11 15 12 10 11 17 14 5 5 2 2 3 6 9 12 16 18 19 20 19 19 19 16 14 12 10 10 12 12 8 14 7 9 10 16 12 13 23 25 25 23 23 28
12 17 18 17 9 9 8 15 17 13 16 19 23 8 6 2 1 3 5 7 11 15 17 18 20 18 20 17 15 14 14 11 11 12 10 8 14 13 11 12 14 14 15 21 26 24 24 25 26
16 14 12 14 7 6 8 12 10 12 13 16 12 10 7 3 1 2 4 7 10 14 15 17 18 17 20 13 14 18 15 14 14 14 10 9 15 16 15 17 19 17 16 18 22 25 24 25 23
17 18 20 19 18 8 11 12 10 25 23 19 15 12 9 2 1 2 4 6 9 13 13 16 17 17 18 14 18 24 21 17 19 17 12 9 16 19 18 19 21 20 22 20 19 22 25 27 20
14 12 13 17 16 11 11 20 20 22 13 14 14 8 8 2 1 2 3 5 8 12 13 15 16 17 18 21 22 21 20 20 21 26 23 16 16 18 20 22 24 27 16 19 21 22 21 22 19
15 10 10 10 15 8 15 20 11 10 14 14 11 7 3 2 3 2 2 4 7 10 12 14 16 18 18 19 19 20 21 16 14 16 23 21 16 19 21 24 27 24 25 19 22 21 21 21 20
13 10 8 19 9 7 3 11 18 8 12 13 6 3 3 3 4 3 5 6 7 10 11 13 15 17 18 20 19 13 15 13 15 14 16 16 19 19 21 23 24 30 29 22 24 21 20 19 18
11 11 12 8 5 10 8 10 14 12 7 14 9 1 4 5 6 7 8 8 8 9 11 12 14 16 17 20 20 22 21 20 14 15 17 21 23 20 21 26 29 29 25 20 23 20 19 19 16
9 11 10 20 6 12 7 7 9 13 13 13 12 11 8 5 6 8 8 8 8 9 10 12 14 15 15 18 19 19 16 21 22 17 18 21 22 21 22 24 23 25 25 24 23 19 16 13 15
10 7 6 5 7 7 4 6 12 13 11 10 12 10 8 7 8 10 11 10 9 9 10 11 13 14 15 17 18 17 17 24 24 23 22 22 23 22 23 26 22 15 20 19 18 15 13 13 14
12 10 9 4 3 3 7 10 15 13 12 10 11 11 9 7 10 13 13 12 11 10 11 12 13 14 14 17 17 19 21 27 26 26 24 21 19 14 19 28 27 23 12 12 10 10 11 12 13
12 20 14 18 31 20 9 12 12 10 7 8 8 10 8 9 13 14 13 13 12 11 11 12 13 13 14 15 17 18 21 24 26 27 27 26 10 14 13 19 1 28 9 10 9 10 9 11 10
16 8 11 8 7 7 5 5 8 8 12 14 10 9 9 12 13 12 13 14 13 12 12 13 13 13 14 15 17 18 20 22 23 24 25 24 16 12 23 4 3 8 8 11 10 9 8 9 10
19 26 9 20 7 5 7 8 10 9 12 13 12 11 13 14 15 12 14 15 15 14 14 15 15 15 15 15 17 18 20 22 23 25 26 27 27 9 21 23 14 10 14 15 17 14 15 10 18
19 20 17 8 11 7 4 11 11 7 10 11 12 12 13 14 13 13 16 16 17 15 15 16 17 16 16 16 16 18 20 21 23 25 27 28 29 3 14 20 19 19 19 18 15 22 8 11 5
Wind_Direction
84 90 81 52 6 12 348 344 359 345 350 347 340 334 328 330 337 337 6 4 1 2 4 5 7 1 351 343 339 336 334 332 331 329 325 323 322 319 315 309 304 300 298 293 288 285 287 285 278
78 67 54 14 345 338 352 352 347 341 334 338 337 337 338 336 345 351 2 11 9 2 358 354 6 355 343 339 336 334 333 331 329 327 322 319 317 314 310 307 302 297 293 290 286 286 283 282 279
66 59 358 345 337 329 329 351 339 340 335 336 340 339 336 341 349 350 3 9 5 2 1 358 357 350 343 338 336 334 332 329 327 323 319 315 312 309 304 303 299 295 290 286 283 282 281 279 277
51 27 9 343 329 340 338 329 334 331 339 333 330 333 350 1 358 5 7 5 1 358 354 359 358 349 341 337 333 332 330 328 324 321 317 314 310 306 301 297 295 291 285 282 280 279 276 274 272
46 7 338 327 334 332 337 330 332 333 334 340 341 332 337 2 8 7 6 2 356 349 347 350 353 348 345 341 337 334 331 328 325 323 320 317 313 309 304 296 290 284 282 279 275 272 273 273 268
355 1 331 327 336 345 345 340 335 331 332 336 331 330 336 15 9 8 6 1 353 348 351 354 358 357 354 348 343 338 334 332 329 326 322 316 311 305 303 297 289 282 278 278 272 267 268 269 267
330 328 317 319 322 325 337 344 330 327 325 330 341 326 340 350 10 6 2 2 358 356 359 2 360 355 353 352 349 343 338 334 331 328 322 316 311 305 300 295 290 282 276 274 270 263 263 265 265
329 320 313 318 319 326 325 338 331 332 332 335 337 334 334 355 13 6 2 5 3 5 4 1 0 353 349 350 352 347 340 338 336 333 329 322 316 308 302 293 285 280 275 269 267 263 260 260 259
326 308 310 315 318 321 321 327 341 338 331 336 337 335 344 1 10 3 2 1 1 359 2 5 358 353 352 350 349 347 347 346 344 348 349 342 335 325 316 302 286 275 270 268 265 261 257 255 254
297 304 310 315 314 320 321 319 320 332 337 337 335 337 346 4 2 357 358 358 358 358 1 359 360 355 354 354 353 350 350 350 346 348 355 351 337 328 319 311 298 275 265 266 264 258 253 249 247
283 291 313 314 323 329 325 325 333 334 337 342 340 343 346 357 360 0 360 2 357 4 4 1 359 360 357 356 355 355 356 353 354 353 359 1 342 336 331 313 300 281 266 263 258 256 249 243 242
281 253 233 266 285 320 328 334 337 344 335 338 337 344 352 358 2 11 7 6 13 4 4 5 4 1 1 0 357 2 0 5 7 7 6 7 352 344 336 322 306 284 263 257 253 246 249 239 242
256 250 239 250 309 316 327 328 332 341 342 340 344 344 348 350 358 16 24 24 11 7 6 7 5 4 5 4 5 5 10 19 18 15 13 16 351 353 343 329 290 284 262 249 246 244 243 240 239
237 221 289 310 308 314 321 320 332 339 350 344 343 347 342 351 3 27 26 22 14 10 7 8 8 9 10 7 11 13 21 22 22 21 16 19 37 33 11 349 309 270 259 244 239 240 242 238 232
257 290 293 301 304 303 310 304 302 327 332 336 337 339 343 347 22 44 34 21 13 12 11 11 12 15 16 17 22 21 24 24 23 16 14 25 81 72 62 3 331 274 259 238 231 233 238 228 224
277 270 292 299 277 295 306 302 316 319 322 330 333 323 339 341 36 50 30 21 18 13 11 14 13 16 17 18 25 31 33 35 32 28 20 9 190 121 74 39 285 275 251 228 228 229 228 224 221
257 285 291 302 305 298 284 304 321 331 325 325 325 327 327 338 26 49 45 35 21 16 15 15 16 21 17 26 36 45 41 49 56 50 44 143 185 165 120 112 275 258 247 231 224 225 224 220 220
267 278 280 309 291 299 286 295 301 318 315 320 315 322 324 307 168 61 48 34 26 18 20 19 23 26 20 37 49 41 53 66 66 61 92 117 178 172 153 151 154 242 242 233 227 222 220 217 220
279 296 303 309 322 303 312 301 278 317 316 315 313 311 318 295 54 72 47 36 30 20 26 24 28 31 35 51 35 17 30 62 60 62 82 128 181 179 161 150 136 221 216 222 221 218 216 221 217
227 277 291 304 313 320 316 244 250 316 291 310 309 297 315 293 146 84 48 46 33 26 30 31 35 32 38 29 30 41 37 51 58 39 55 84 119 145 153 148 146 172 227 220 217 216 216 215 217
211 243 282 297 316 320 319 251 258 333 333 332 332 329 331 212 171 134 67 78 49 33 38 40 38 36 45 44 57 51 38 59 73 71 54 67 123 128 136 146 177 203 198 216 214 217 219 217 220
221 267 274 302 306 282 263 283 335 340 350 345 333 329 328 120 142 136 125 106 67 45 47 46 43 37 49 43 56 76 65 72 71 86 78 86 96 128 132 135 142 179 193 210 208 215 221 216 216
239 281 295 297 268 233 249 316 337 349 355 5 3 352 101 114 132 134 132 113 82 54 56 54 53 45 49 47 60 41 43 53 77 80 78 73 84 99 117 148 168 194 208 216 212 218 221 218 216
224 278 296 299 306 231 276 301 329 356 13 11 13 19 68 93 118 127 119 104 85 66 65 64 62 51 56 58 63 65 81 55 41 80 98 86 86 91 110 122 204 207 208 212 213 218 215 213 207
255 251 261 230 221 228 325 346 340 342 2 12 7 24 42 81 107 123 125 114 97 83 75 74 74 52 60 60 72 78 77 53 63 53 72 82 81 90 114 125 187 226 214 212 213 212 202 194 189
206 208 196 287 280 285 12 352 359 12 16 18 9 3 54 85 116 127 124 118 107 93 86 87 83 66 69 54 81 78 69 46 33 84 82 99 110 139 149 120 146 182 213 207 201 194 189 181 186
228 199 199 209 255 311 332 343 337 5 33 78 60 19 51 97 119 125 123 121 112 98 91 94 80 70 73 63 85 88 69 61 64 77 77 51 156 159 170 86 261 142 190 186 182 179 178 188 185
218 213 201 221 250 284 305 353 10 52 39 38 54 68 73 106 115 115 120 119 115 103 93 103 91 80 82 73 91 89 76 67 80 83 76 78 107 167 119 217 188 170 184 182 176 179 186 191 200
204 198 224 279 201 303 336 358 24 30 34 42 70 87 104 113 116 110 120 119 122 108 105 110 108 91 93 74 78 90 71 78 86 83 62 75 73 190 159 155 181 180 179 182 179 185 190 201 205
218 205 206 226 193 271 234 348 15 48 46 62 73 86 108 118 112 108 122 122 127 117 108 112 116 106 106 93 73 90 85 90 94 96 76 84 92 179 184 168 175 175 172 184 189 181 200 195 189